GFSNE_925_temp_108.txt.gz
Temp
14 14 14 14 14 14 14 14 13 10 9 10 9 9 9 9 9 9 9 8 8 7 7 7 7 7 7 7 7 6 4 4 4 5 6 6 7 8
14 13 13 13 13 13 13 13 13 13 9 10 8 8 8 8 8 8 8 7 7 6 6 6 5 5 5 5 5 4 4 3 3 4 5 6 7 7
14 14 13 12 12 12 12 12 12 12 9 8 8 8 7 7 8 7 6 6 7 6 5 4 5 4 4 4 4 3 3 3 3 3 4 5 6 7
13 13 13 12 11 11 11 11 11 11 10 8 7 6 6 6 7 6 6 6 5 5 4 4 3 3 3 3 3 1 3 2 2 2 4 5 7 9
12 12 11 11 11 10 10 11 10 10 9 9 7 6 5 5 5 5 5 5 4 4 4 3 3 3 3 2 1 2 1 1 2 3 3 5 6 8
11 11 11 10 10 9 9 10 9 8 8 7 7 5 5 5 4 4 4 4 4 3 3 3 2 2 2 1 2 2 1 1 1 2 3 5 6 6
9 9 9 10 9 9 9 9 8 7 7 6 5 4 4 3 4 4 3 3 3 2 2 2 2 2 2 1 1 1 0 0 0 0 2 5 5 6
9 9 9 8 9 9 9 8 8 8 6 6 5 4 4 5 5 4 3 2 1 3 2 2 2 1 1 1 1 -0 -0 -0 -0 -0 2 4 5 5
8 8 8 8 8 8 8 7 7 7 7 7 6 5 4 5 4 3 3 2 3 3 2 2 1 1 1 0 -0 -1 -1 -1 -1 -1 1 3 4 5
7 7 8 8 8 7 7 6 6 6 6 6 5 5 5 5 4 4 3 2 2 2 1 2 1 1 1 0 -1 -1 -2 -1 -1 -1 1 2 3 4
7 7 7 7 7 6 5 5 5 5 5 4 4 4 4 4 3 3 2 1 0 1 1 2 0 -0 -0 -0 -1 -1 -1 -1 -1 -1 0 2 2 2
6 6 6 6 6 5 5 4 3 4 3 3 3 3 3 3 3 3 3 1 1 -0 1 1 0 0 -1 -1 -1 -1 -1 -1 -1 -1 -0 1 1 2
4 5 5 5 5 5 4 4 4 4 3 2 2 2 2 2 2 2 2 3 2 3 2 1 -0 -1 -1 -2 -1 -1 -1 -1 -1 -0 -0 0 1 1
4 4 4 4 4 4 4 3 3 3 2 1 1 0 0 0 1 1 1 1 1 2 2 1 1 -0 -1 -2 -1 -1 -1 -1 -1 -1 -1 -0 0 1
4 4 4 4 4 3 3 3 2 1 1 -0 -0 -0 0 0 -0 -0 -0 -0 -0 0 1 1 0 -0 -0 0 -1 -1 -1 -1 -1 -1 -1 -0 0 0
3 4 4 3 3 3 3 2 2 1 -0 -2 -2 -1 -1 -1 -1 -1 -1 -2 -2 -2 -1 -1 -1 -1 -0 -0 0 -0 -1 -1 -1 -1 -1 -1 -1 -0
2 2 3 2 2 2 2 2 1 -0 -1 -1 -2 -2 -2 -2 -3 -3 -2 -2 -2 -3 -3 -3 -2 -2 -1 -0 -1 -0 -1 -1 -1 -1 -1 -1 -1 -1
2 2 2 1 1 1 1 0 -0 -1 -2 -2 -2 -2 -3 -4 -3 -3 -3 -3 -3 -3 -3 -3 -3 -3 -2 -1 -1 -0 -1 -1 -2 -2 -2 -2 -1 -1
2 2 1 1 1 1 0 -0 -1 -1 -1 -2 -2 -2 -3 -4 -3 -3 -4 -3 -4 -3 -3 -3 -3 -2 -8 -5 -2 -1 -1 -1 -1 -2 -2 -2 -2 -2
1 2 1 1 0 -0 -0 -1 -1 -1 -2 -2 -2 -2 -3 -4 -4 -4 -4 -4 -4 -4 -4 -3 -3 -2 -1 -3 -1 -2 -1 -2 -2 -2 -2 -2 -2 -2
-1 0 1 0 -0 -0 -1 -1 -1 -1 -2 -2 -2 -2 -3 -4 -3 -4 -4 -4 -4 -4 -4 -4 -2 -2 -2 -2 -2 -2 -1 -1 -2 -2 -3 -3 -4 -3
-2 -1 -0 -0 -0 -1 -1 -1 -2 -2 -2 -2 -2 -2 -3 -2 -3 -4 -4 -4 -4 -4 -3 -3 -3 -4 -3 -3 -3 -2 -2 -2 -2 -3 -3 -3 -3 -4
-2 -2 -2 -1 -1 -1 -1 -2 -2 -2 -2 -2 -2 -2 -3 -3 -3 -3 -3 -3 -4 -4 -4 -4 -4 -4 -4 -4 -4 -4 -4 -3 -3 -3 -3 -3 -4 -4

GFSNE_925_temp_111.txt.gz
Temp
14 14 14 14 13 13 13 11 11 10 10 10 10 10 9 10 9 9 9 8 8 8 8 7 7 6 6 7 7 7 6 5 4 5 5 6 6 7
13 13 13 13 13 13 13 13 12 12 11 11 9 9 8 8 8 8 8 8 7 7 7 7 6 6 6 5 5 5 4 4 3 4 4 5 6 6
13 13 13 13 13 13 13 12 11 11 10 9 10 9 8 8 8 8 8 8 8 7 6 5 5 5 4 4 4 4 4 2 3 3 3 4 5 6
13 13 13 12 12 12 12 12 11 11 11 8 7 7 7 7 7 7 7 7 7 6 6 5 4 4 4 3 3 3 2 2 2 2 3 4 5 6
12 12 12 12 11 11 11 10 10 10 9 9 6 6 6 6 5 5 5 6 5 5 5 4 4 3 3 3 2 2 2 1 2 2 2 4 6 6
10 10 10 10 10 10 10 9 9 8 8 8 6 5 5 5 5 5 4 4 4 4 4 4 3 3 3 3 2 2 2 1 1 1 1 3 6 6
9 9 9 9 9 9 9 8 8 8 8 7 6 5 5 4 4 4 4 4 3 3 3 3 3 3 2 2 2 1 0 0 0 0 1 3 4 6
8 8 8 8 8 8 8 8 8 8 7 6 5 5 5 5 4 4 3 2 2 3 2 2 2 2 2 2 1 0 -0 -1 -1 -0 0 2 3 6
7 7 8 8 8 7 7 7 7 7 7 8 6 5 5 6 5 4 3 3 3 3 1 1 1 2 1 1 1 -0 -1 -1 -1 -1 -0 1 4 6
6 6 6 7 7 7 7 6 6 7 6 7 6 7 7 6 5 5 5 3 2 2 1 2 1 2 1 1 0 -1 -1 -1 -1 -1 -1 1 3 6
6 6 6 6 6 6 6 6 5 5 5 5 5 5 5 5 5 4 3 1 -0 1 1 1 1 1 0 0 -0 -1 -1 -1 -1 -1 -1 1 2 4
4 5 5 6 6 5 5 5 4 5 5 5 3 4 4 4 4 4 4 1 1 -0 1 1 1 1 -1 -1 -1 -1 -1 -1 -1 0 0 0 2 3
4 4 4 4 5 5 4 4 4 4 4 4 3 3 3 3 2 3 3 3 2 4 3 1 -0 -0 -0 -2 -2 -1 -1 -1 -0 -0 0 1 2 2
2 3 4 4 4 4 4 4 4 3 3 2 1 1 1 1 1 1 1 1 1 2 3 2 2 0 -0 -2 -2 -2 -1 -1 -1 -1 0 1 1 2
2 2 2 3 4 4 4 4 3 2 2 0 -1 -0 1 1 0 0 0 0 0 1 1 1 1 1 0 1 -1 -2 -2 -1 -1 -1 -0 0 1 1
0 1 1 2 3 3 3 3 3 2 2 0 -1 -1 -1 -2 -2 -1 -1 -1 -1 -1 -1 -0 -0 -0 -0 -0 0 -1 -1 -1 -1 -1 -0 -0 -0 -0
0 0 1 2 2 2 3 3 3 2 0 -0 -1 -2 -2 -3 -3 -3 -2 -3 -3 -3 -3 -3 -2 -2 -1 -0 -1 -0 -1 -1 -1 -0 -0 -1 -1 -0
-0 0 1 1 1 1 1 2 2 1 0 -1 -2 -2 -3 -3 -4 -4 -4 -4 -4 -4 -4 -4 -3 -3 -2 -2 -1 -1 -1 -1 -2 -1 -1 -1 -1 -1
-2 -1 -0 1 1 1 1 1 0 1 -0 -1 -2 -2 -3 -3 -3 -4 -4 -4 -5 -4 -4 -3 -4 -3 -7 -5 -2 -2 -1 -1 -2 -2 -2 -1 -1 -1
-3 -2 -2 -0 0 1 0 0 -0 -0 -1 -2 -2 -3 -3 -3 -4 -4 -4 -5 -4 -4 -4 -4 -4 -3 -1 -3 -2 -2 -2 -1 -1 -2 -2 -2 -2 -2
-3 -3 -3 -2 -1 -0 0 -0 -0 -1 -1 -2 -2 -3 -3 -3 -4 -4 -4 -4 -4 -4 -5 -4 -2 -2 -2 -1 -2 -3 -3 -2 -2 -1 -1 -2 -3 -3
-4 -4 -3 -3 -2 -1 -1 -1 -1 -1 -2 -2 -3 -3 -3 -3 -4 -4 -4 -4 -4 -4 -4 -3 -3 -4 -3 -2 -2 -3 -3 -3 -3 -3 -2 -2 -2 -3
-5 -5 -4 -3 -3 -2 -2 -1 -1 -2 -2 -2 -2 -3 -3 -3 -3 -3 -4 -4 -4 -4 -4 -4 -4 -4 -4 -4 -3 -3 -3 -3 -3 -4 -3 -3 -3 -3

GFSNE_925_temp_117.txt.gz
Temp
14 15 15 15 14 15 13 13 13 14 14 13 12 13 13 12 12 11 11 11 10 10 10 9 9 9 9 8 7 7 7 7 7 7 5 5 6 6
13 13 13 14 13 13 13 12 12 12 13 13 14 13 13 11 11 11 10 9 9 8 8 8 8 7 7 7 6 7 7 6 6 4 5 5 5 6
13 13 13 13 13 12 12 12 12 11 11 12 11 11 11 10 10 9 9 9 9 8 7 7 7 6 6 6 5 6 6 6 6 4 4 4 4 5
11 11 11 11 11 11 11 12 11 11 10 11 10 10 9 9 10 9 8 8 8 7 8 6 6 6 5 5 4 4 4 4 4 4 3 3 3 5
9 9 9 9 10 10 10 10 10 10 10 10 9 8 7 8 7 7 7 7 7 8 7 6 5 5 5 4 4 3 3 3 3 2 3 2 3 4
8 8 8 7 7 7 7 8 8 9 9 9 8 7 6 6 6 6 5 6 6 6 7 6 5 4 4 4 3 3 3 3 2 1 1 1 3 4
7 7 7 7 7 7 6 6 7 7 8 7 7 6 5 5 5 5 5 5 5 6 6 5 4 4 4 3 3 3 2 2 1 1 1 1 2 4
5 5 6 6 7 7 7 7 6 6 7 7 7 7 6 6 5 5 5 4 3 5 5 4 4 3 3 3 3 2 2 1 1 1 1 0 2 3
4 4 4 4 4 4 5 5 5 6 7 7 6 7 7 6 6 4 4 4 5 6 4 2 2 2 3 2 2 2 0 0 0 -1 -0 -0 1 3
2 2 3 3 4 3 4 4 4 4 5 5 6 6 7 7 6 6 5 4 4 4 3 2 2 1 2 2 2 1 -0 0 0 -1 -0 0 2 3
1 1 2 2 3 3 3 4 4 4 4 5 5 5 6 6 6 5 4 2 1 1 1 2 -0 -1 -0 -0 1 -1 -1 0 -0 -1 -1 -0 2 3
1 0 1 1 1 2 2 2 3 3 4 4 4 4 5 5 5 5 5 2 1 -0 1 1 -1 1 -1 -1 -1 -1 -1 -1 -1 -1 0 1 2 3
-1 -0 -0 0 0 1 1 1 2 2 3 4 3 3 3 4 4 4 4 3 2 3 2 1 -0 -0 -0 -3 -3 -2 -1 -1 -1 -0 -0 0 0 2
-1 -1 -1 -1 -1 -0 0 1 1 2 2 3 3 3 3 2 3 3 3 2 2 3 3 2 2 1 -1 -2 -2 -3 -2 -1 -1 -0 -0 -0 1 2
-1 -1 -1 -1 -1 -1 -0 0 1 1 2 2 1 1 2 2 1 1 1 1 0 -0 -0 0 0 1 1 -0 -3 -4 -4 -2 -1 -1 -1 -0 0 1
-1 -1 -2 -2 -2 -2 -1 -1 -0 0 1 1 1 1 1 0 -0 -0 -1 -1 -1 -2 -1 -1 -1 1 1 0 -0 -3 -2 -2 -2 -1 -1 -1 -0 1
-2 -2 -3 -3 -3 -2 -2 -2 -1 0 0 1 1 -0 -0 -1 -1 -1 -1 -2 -2 -4 -4 -3 -2 -1 0 1 -2 -3 -3 -2 -2 -1 -2 -2 -1 -1
-2 -3 -3 -3 -3 -3 -3 -3 -2 -1 -0 0 0 -0 -1 -2 -2 -3 -2 -2 -3 -3 -4 -4 -4 -4 -2 -2 -1 -2 -2 -2 -2 -2 -1 -1 -2 -1
-4 -4 -4 -4 -4 -4 -4 -3 -3 -2 -1 -1 -0 -1 -1 -2 -3 -3 -3 -3 -3 -4 -4 -4 -4 -4 -3 -2 -4 -2 -1 -2 -2 -2 -1 -1 -1 -2
-4 -4 -4 -4 -4 -4 -4 -4 -3 -3 -2 -1 -1 -1 -1 -2 -3 -4 -4 -3 -4 -4 -5 -4 -4 -4 -3 -3 -4 -4 -2 -1 -1 -2 -2 -2 -2 -3
-5 -5 -5 -5 -5 -5 -5 -4 -4 -3 -3 -2 -2 -1 -2 -2 -3 -3 -4 -3 -4 -4 -5 -5 -4 -3 -3 -3 -3 -5 -4 -2 -1 -0 -2 -2 -3 -3
-5 -6 -6 -6 -6 -6 -6 -5 -4 -3 -3 -2 -2 -2 -2 -2 -3 -4 -4 -3 -4 -4 -5 -5 -5 -4 -4 -3 -4 -5 -5 -5 -3 -2 -1 -1 -1 -2
-7 -7 -7 -7 -7 -7 -6 -6 -6 -5 -3 -3 -2 -2 -2 -3 -3 -3 -4 -4 -4 -4 -5 -6 -6 -6 -4 -3 -5 -5 -5 -5 -5 -4 -3 -3 -2 -1

GFSNE_925_temp_120.txt.gz
Temp
14 14 13 14 13 13 13 13 13 14 15 15 14 15 15 14 14 13 13 12 11 11 11 10 10 10 11 10 10 9 8 8 8 7 7 6 6 6
14 13 13 13 13 13 13 13 13 13 13 14 14 14 13 13 13 13 12 11 11 10 10 10 9 10 10 9 9 8 7 7 7 6 6 5 6 6
13 13 13 13 12 12 12 12 12 12 12 12 12 12 12 12 13 12 11 11 10 10 9 9 9 9 8 8 7 8 7 7 6 6 5 5 5 5
11 11 10 10 10 10 10 11 11 11 11 11 11 11 11 11 11 10 10 10 9 9 9 8 8 8 8 7 7 7 6 6 6 5 5 4 3 4
8 8 8 8 9 9 9 8 8 9 9 9 10 9 9 10 9 8 8 8 8 8 8 7 7 7 8 7 6 5 5 4 3 4 4 3 2 3
6 6 7 7 7 7 7 7 8 8 8 8 8 8 8 7 7 6 6 6 6 6 6 7 6 6 6 5 5 5 4 4 3 3 2 2 2 2
6 6 6 6 6 6 5 6 6 7 7 7 7 7 6 5 6 6 5 6 5 6 6 6 5 6 5 5 4 5 4 3 3 2 1 1 1 2
5 5 5 5 4 4 4 4 4 5 5 6 7 7 7 6 6 6 6 5 4 5 4 4 5 5 5 5 4 5 4 3 2 1 0 1 1 2
3 4 4 4 4 5 4 4 4 4 4 4 5 5 6 6 6 6 5 5 6 7 4 4 4 3 4 4 4 4 3 3 1 1 0 0 0 1
3 3 3 3 4 3 3 3 3 4 4 4 4 4 4 5 5 6 6 5 5 5 4 4 2 2 2 3 3 3 2 1 0 1 -0 -0 -0 2
2 2 1 2 2 1 2 1 1 2 2 3 3 4 4 4 4 5 5 3 3 2 3 2 0 0 0 0 1 1 2 0 -0 0 -1 -1 -0 2
1 2 1 1 0 -0 0 0 0 1 1 2 2 3 3 3 4 4 4 3 3 0 2 1 -1 0 -1 -1 -1 0 0 0 -1 -1 -1 -1 -0 2
1 1 1 -0 -0 -0 -0 -0 0 0 1 1 2 2 2 3 3 3 4 3 2 2 3 1 -0 -0 -1 -3 -2 -1 0 0 -1 -1 -1 -0 -0 2
-0 -0 -1 -1 -1 -1 -1 -1 -0 0 0 1 1 1 1 2 2 2 2 2 2 3 3 1 0 -0 -2 -2 -2 -2 -1 -1 -1 -1 -1 -0 0 2
-0 -1 -1 -1 -1 -2 -2 -1 -1 -1 -1 0 1 1 1 1 1 1 0 1 1 1 1 1 -0 -1 -1 -1 -2 -2 -2 -2 -3 -2 -1 -0 -0 1
-1 -1 -1 -2 -2 -2 -2 -2 -2 -2 -2 -0 0 0 0 0 -0 -1 -1 -1 -1 -1 -1 -1 -1 -1 -2 -2 -2 -2 -2 -2 -3 -2 -1 -1 -0 0
-1 -2 -2 -2 -2 -2 -2 -2 -2 -2 -2 -2 -1 -1 -1 -1 -1 -1 -2 -2 -2 -3 -4 -3 -3 -2 -2 -2 -2 -2 -2 -3 -3 -2 -2 -2 -1 -0
-2 -2 -2 -3 -3 -3 -3 -3 -3 -3 -3 -3 -2 -1 -1 -1 -2 -2 -2 -2 -2 -2 -3 -4 -4 -4 -4 -4 -2 -2 -3 -4 -4 -3 -2 -2 -2 -1
-2 -2 -3 -3 -3 -3 -4 -4 -3 -3 -3 -3 -3 -2 -1 -2 -2 -3 -3 -2 -2 -2 -3 -4 -4 -2 -2 -1 -4 -3 -3 -4 -4 -3 -2 -2 -2 -2
-3 -3 -3 -4 -4 -4 -4 -4 -4 -4 -4 -3 -3 -2 -2 -2 -2 -2 -2 -2 -2 -2 -3 -4 -3 -2 -1 -2 -3 -5 -4 -4 -3 -3 -4 -3 -3 -2
-4 -4 -4 -5 -5 -5 -6 -6 -5 -5 -4 -4 -3 -3 -2 -2 -2 -2 -2 -2 -2 -3 -3 -3 -3 -3 -3 -3 -3 -5 -5 -4 -3 -2 -3 -3 -3 -3
-5 -6 -6 -6 -6 -7 -7 -7 -6 -5 -5 -5 -3 -3 -2 -2 -2 -2 -2 -2 -2 -3 -3 -4 -4 -4 -4 -2 -2 -5 -5 -5 -3 -2 -2 -1 -1 -1
-6 -6 -6 -7 -7 -7 -7 -7 -6 -6 -6 -5 -4 -3 -2 -2 -2 -2 -3 -3 -3 -3 -4 -4 -4 -4 -4 -4 -4 -4 -5 -5 -5 -4 -3 -2 -1 -1

GFSNE_925_temp_123.txt.gz
Temp
13 14 14 14 14 14 14 14 13 14 14 16 15 16 15 15 15 14 14 14 13 13 12 12 12 12 12 11 11 11 10 10 10 9 8 7 7 7
13 14 14 14 14 13 13 13 13 13 13 13 14 14 14 14 13 13 13 13 13 12 11 11 11 12 11 11 11 11 10 9 10 8 7 6 6 6
13 13 13 13 12 12 12 12 12 12 12 12 12 12 12 12 12 12 12 12 12 11 10 11 11 11 10 10 10 10 9 9 8 6 6 6 6 6
9 10 9 10 10 9 10 10 9 9 9 10 10 10 10 10 10 10 10 10 10 10 10 10 10 10 9 9 9 9 9 8 7 7 7 6 5 5
8 8 7 8 8 8 8 8 8 8 8 8 9 9 8 9 8 8 9 9 9 9 9 8 8 9 8 8 8 8 8 7 7 7 7 6 5 4
7 7 7 6 6 6 6 6 7 7 7 7 8 7 7 7 7 6 6 7 7 7 7 8 7 8 8 8 7 7 6 6 6 6 6 6 4 2
6 6 6 5 5 5 4 5 4 5 5 5 6 7 7 7 6 7 6 6 6 7 6 6 6 7 7 7 6 6 6 5 5 4 5 4 2 2
5 5 5 5 4 5 5 4 4 4 4 4 5 5 5 6 6 6 6 6 6 7 6 5 5 5 6 6 6 5 5 4 4 3 4 3 2 1
4 4 4 4 4 3 3 3 3 3 4 4 4 4 4 4 4 4 5 5 6 6 5 4 5 4 5 5 6 5 5 4 3 3 2 2 2 1
4 4 3 3 3 1 1 1 2 2 2 2 2 2 3 3 3 4 4 4 4 5 5 4 4 4 4 4 4 4 4 3 3 2 2 1 0 1
3 3 2 2 1 0 0 0 0 1 1 1 1 1 2 2 3 3 3 3 4 4 4 3 3 2 2 2 2 3 2 2 2 1 0 -0 -0 2
2 2 2 1 0 0 0 -0 0 0 0 0 1 1 2 2 2 2 2 3 3 2 4 2 1 1 0 -0 0 1 1 1 1 0 -0 -1 0 1
2 2 1 0 -0 -0 -0 -1 -0 -1 -1 -0 0 0 1 1 1 1 1 1 2 2 3 2 0 -0 0 -1 -2 -1 -0 -0 -0 -1 -1 0 0 -1
1 1 -0 -0 -1 -1 -1 -1 -1 -1 -1 -1 -1 -0 0 0 0 0 0 1 1 1 1 2 1 0 -1 -2 -2 -2 -1 -1 -1 -1 -1 -0 -0 -0
0 -0 -0 -1 -1 -2 -1 -1 -1 -2 -2 -2 -1 -1 -1 -0 -0 -0 -0 -1 -1 -0 1 1 1 0 -1 -1 -2 -2 -1 -2 -2 -2 -1 -1 -1 0
-0 -1 -1 -1 -2 -2 -2 -2 -2 -2 -2 -2 -2 -2 -2 -1 -1 -1 -2 -1 -2 -1 -1 -1 -1 -1 -1 -1 -2 -2 -2 -2 -2 -2 -2 -1 -1 -1
-1 -1 -1 -1 -2 -2 -2 -3 -3 -3 -3 -2 -3 -3 -2 -2 -1 -1 -2 -2 -2 -2 -3 -3 -3 -2 -2 -2 -2 -2 -2 -2 -3 -3 -2 -2 -2 -1
-2 -2 -1 -2 -2 -3 -3 -3 -4 -3 -3 -3 -3 -3 -3 -2 -2 -2 -2 -2 -2 -2 -3 -4 -4 -3 -3 -3 -2 -2 -3 -3 -3 -3 -2 -2 -3 -2
-2 -2 -2 -2 -3 -3 -4 -4 -4 -4 -4 -4 -4 -3 -3 -2 -2 -2 -2 -2 -2 -2 -2 -3 -3 -2 -2 -2 -4 -3 -3 -4 -4 -3 -2 -1 -3 -3
-2 -3 -3 -3 -4 -5 -5 -5 -5 -5 -5 -5 -4 -4 -3 -3 -2 -2 -2 -2 -2 -2 -3 -3 -3 -2 -1 -2 -3 -5 -4 -4 -3 -3 -3 -3 -3 -3
-3 -4 -4 -5 -5 -6 -6 -6 -6 -6 -6 -5 -5 -4 -4 -3 -2 -2 -2 -2 -2 -2 -2 -3 -3 -2 -2 -3 -4 -5 -5 -4 -3 -3 -3 -3 -3 -3
-5 -5 -5 -5 -6 -6 -6 -7 -7 -6 -6 -6 -5 -5 -4 -3 -3 -2 -2 -2 -2 -2 -2 -3 -3 -3 -3 -2 -4 -5 -5 -4 -4 -3 -2 -2 -1 -3
-5 -5 -6 -6 -6 -6 -7 -7 -7 -7 -7 -6 -6 -5 -4 -4 -3 -2 -2 -2 -2 -3 -3 -4 -4 -4 -3 -3 -4 -5 -5 -5 -4 -3 -3 -2 -1 -0

GFSNE_925_temp_126.txt.gz
Temp
14 14 13 13 14 14 14 14 13 13 14 15 15 15 15 15 14 14 13 13 13 13 13 13 13 13 13 13 12 12 12 12 11 10 10 9 9 8
13 13 13 13 13 14 14 13 13 13 13 13 14 14 13 12 12 12 11 11 12 12 12 12 12 11 11 11 11 11 11 11 11 10 10 9 8 8
12 12 12 12 12 12 12 11 11 11 11 11 10 10 10 10 10 10 10 10 11 11 11 11 10 10 10 10 11 11 11 11 10 10 8 8 7 7
9 10 9 9 9 9 9 9 9 8 8 8 8 9 9 9 8 8 7 7 7 8 9 9 8 8 9 9 9 10 10 10 9 9 8 8 6 6
8 8 7 7 7 7 7 7 7 7 6 6 7 7 7 8 8 8 8 8 8 7 6 6 6 7 7 8 9 9 9 9 9 8 7 7 6 5
7 6 6 6 6 6 5 5 5 5 5 5 5 5 5 6 6 6 6 6 6 7 7 8 8 7 6 7 8 9 9 9 8 7 7 6 6 6
6 5 5 5 5 5 4 4 4 4 4 4 4 4 5 5 5 5 5 5 5 6 6 7 7 7 7 7 7 8 8 8 7 7 6 6 5 5
5 5 5 5 4 4 4 3 3 3 3 3 3 3 4 4 4 3 4 4 4 5 5 4 6 5 5 6 6 6 7 7 7 6 5 4 3 3
4 4 4 3 3 2 2 2 1 1 2 2 2 1 1 2 2 2 2 3 3 4 3 3 4 4 6 6 6 6 6 6 6 5 4 3 2 2
3 3 3 2 1 1 1 0 0 0 0 1 1 1 1 1 1 1 2 2 2 2 3 3 4 4 5 5 5 5 5 5 5 4 3 4 3 1
3 2 2 2 1 0 0 0 -0 -0 0 0 -0 0 1 1 2 2 2 1 2 2 3 2 3 3 3 4 4 4 3 4 4 3 3 2 1 0
2 2 2 1 0 0 -0 -1 -1 -0 -1 -1 -1 -1 -1 0 1 1 0 1 1 1 3 2 2 2 2 1 3 3 2 3 3 3 1 0 -0 -0
1 1 1 0 -0 -0 -1 -1 -1 -1 -1 -1 -1 -2 -1 -1 -0 -0 -0 -0 -0 0 1 1 1 0 0 0 -1 1 0 1 2 1 -0 -1 -1 -1
-0 0 -0 -0 -0 -1 -1 -1 -1 -1 -2 -2 -2 -2 -2 -2 -2 -1 -0 -1 -1 -1 -0 -0 0 1 -0 -1 -1 -1 -1 -1 -0 -1 -1 -1 -2 -2
0 -0 -1 -1 -1 -2 -2 -2 -2 -3 -3 -2 -2 -3 -3 -2 -2 -1 -1 -1 -1 -1 -1 -0 -1 -0 -1 -1 -1 -2 -2 -2 -1 -1 -2 -2 -2 -1
-1 -1 -1 -1 -1 -2 -2 -3 -3 -3 -3 -3 -3 -3 -3 -3 -3 -2 -2 -2 -2 -1 -1 -1 -1 -1 -1 -1 -2 -2 -1 -2 -2 -2 -2 -3 -2 -1
-1 -1 -2 -2 -2 -2 -3 -3 -4 -4 -4 -4 -4 -4 -3 -3 -3 -2 -2 -2 -3 -2 -2 -2 -3 -3 -2 -2 -2 -2 -2 -2 -2 -2 -3 -3 -2 -1
-2 -2 -2 -2 -2 -3 -3 -4 -4 -4 -4 -5 -4 -4 -4 -3 -3 -2 -2 -2 -2 -2 -2 -2 -3 -3 -3 -3 -3 -3 -3 -3 -3 -3 -3 -3 -3 -2
-2 -2 -2 -3 -3 -4 -4 -5 -5 -5 -6 -6 -5 -5 -4 -4 -3 -3 -2 -2 -2 -2 -2 -2 -3 -3 -4 -3 -4 -3 -3 -3 -3 -3 -2 -2 -3 -2
-3 -3 -3 -3 -4 -5 -5 -6 -6 -6 -6 -6 -6 -5 -5 -5 -4 -3 -2 -2 -2 -2 -2 -2 -3 -3 -3 -4 -4 -4 -4 -3 -3 -4 -4 -3 -3 -3
-4 -4 -4 -5 -5 -5 -6 -6 -6 -6 -6 -6 -6 -6 -6 -5 -5 -3 -3 -2 -2 -2 -2 -3 -2 -3 -2 -3 -4 -4 -4 -4 -3 -3 -4 -3 -3 -3
-4 -5 -5 -5 -5 -6 -6 -7 -7 -7 -7 -7 -7 -6 -6 -6 -5 -4 -3 -2 -2 -2 -2 -3 -3 -3 -3 -4 -5 -5 -4 -4 -4 -3 -2 -2 -1 -4
-5 -5 -5 -6 -6 -6 -7 -6 -7 -7 -7 -7 -7 -7 -7 -6 -6 -5 -4 -3 -3 -2 -3 -4 -4 -3 -3 -4 -5 -5 -4 -4 -4 -3 -3 -1 -1 -0

GFSNE_925_temp_129.txt.gz
Temp
14 14 13 13 13 13 13 13 13 12 13 15 15 15 14 13 12 11 11 12 12 12 11 11 11 11 11 11 12 11 12 12 12 12 12 11 11 10
14 14 14 13 13 13 13 13 12 12 13 14 12 11 11 11 11 11 10 10 10 10 10 9 9 8 9 9 9 10 11 11 11 12 12 11 10 9
13 13 12 12 12 11 11 11 10 10 9 10 10 10 10 10 10 9 9 9 8 8 8 8 8 7 7 7 8 9 10 10 10 11 11 11 10 9
10 9 9 9 9 9 8 8 8 7 8 8 7 8 7 7 7 7 7 7 7 7 7 7 7 8 8 8 9 9 9 9 9 10 11 10 9 9
7 7 7 7 7 7 6 6 6 6 6 5 5 5 5 6 5 5 5 6 6 6 6 6 6 7 7 7 7 8 8 8 9 9 10 10 9 8
6 6 6 6 6 5 5 5 4 4 4 4 4 4 4 4 4 4 4 4 4 5 5 5 6 6 6 6 6 6 7 7 8 9 9 9 8 7
5 5 5 5 4 4 4 3 3 3 3 3 3 3 3 3 2 2 2 2 3 4 4 5 5 5 5 6 6 6 6 7 7 8 8 8 7 6
4 4 4 4 4 3 3 3 2 1 1 1 1 1 1 1 1 1 1 1 1 3 3 2 3 3 4 4 4 5 6 6 6 6 7 7 5 5
4 4 3 2 3 2 2 1 1 1 1 0 0 0 0 0 0 0 0 0 1 2 2 2 3 2 3 4 4 4 5 5 5 6 6 6 5 5
3 3 2 2 1 1 1 1 0 0 -0 0 0 -0 -0 0 0 1 1 1 1 2 3 1 2 2 3 4 4 4 4 3 4 4 5 5 5 4
2 2 2 1 1 1 0 -0 -0 -0 -0 -1 -1 -1 -1 -1 -0 0 0 0 1 1 1 1 2 2 2 3 3 4 4 4 3 4 5 5 3 2
2 2 1 1 0 0 -0 -1 -1 -1 -1 -1 -1 -2 -2 -1 -1 -1 -1 -0 -0 0 1 0 1 1 1 2 2 3 3 3 2 4 4 3 2 1
1 1 1 0 -0 -0 -0 -1 -1 -1 -1 -2 -2 -2 -2 -2 -2 -2 -2 -1 -1 -1 -1 -1 -1 -1 -0 0 1 2 2 1 1 2 2 1 0 -0
0 0 -0 -0 -0 -1 -1 -1 -1 -2 -3 -3 -3 -3 -2 -3 -2 -2 -2 -2 -1 -2 -1 -2 -2 -1 -1 0 -1 0 1 -1 -1 -0 0 -0 -0 -0
-0 -0 -1 -1 -1 -1 -2 -2 -3 -3 -4 -3 -3 -3 -3 -3 -2 -2 -2 -1 -2 -1 -1 -2 -2 -2 -2 -1 -1 -1 -1 -2 -2 -1 -1 -2 -2 -2
-1 -1 -1 -1 -2 -2 -2 -3 -4 -4 -4 -4 -4 -4 -3 -3 -3 -2 -2 -2 -2 -2 -2 -2 -2 -2 -2 -2 -2 -2 -2 -2 -2 -2 -2 -2 -2 -2
-1 -1 -2 -2 -2 -3 -3 -3 -4 -4 -4 -4 -5 -5 -5 -4 -4 -3 -3 -3 -2 -2 -2 -2 -2 -2 -3 -3 -2 -2 -2 -2 -2 -3 -3 -3 -2 -2
-2 -2 -2 -2 -3 -3 -4 -4 -5 -5 -5 -6 -6 -5 -5 -5 -5 -4 -3 -3 -2 -2 -3 -2 -3 -3 -3 -3 -3 -3 -3 -3 -3 -3 -3 -3 -3 -2
-2 -3 -3 -3 -3 -4 -5 -5 -6 -6 -6 -6 -6 -6 -6 -5 -5 -5 -4 -3 -3 -3 -2 -2 -3 -4 -5 -3 -3 -3 -3 -3 -3 -3 -3 -3 -3 -2
-3 -4 -4 -4 -4 -5 -5 -6 -6 -6 -6 -6 -6 -6 -6 -6 -6 -6 -5 -4 -3 -3 -2 -2 -3 -3 -4 -4 -4 -4 -3 -3 -3 -3 -3 -3 -3 -2
-3 -4 -5 -5 -5 -6 -6 -6 -6 -7 -7 -7 -7 -7 -7 -7 -7 -6 -5 -4 -3 -2 -3 -2 -2 -3 -3 -3 -4 -4 -4 -4 -3 -2 -3 -3 -3 -3
-3 -4 -5 -5 -5 -6 -6 -6 -7 -7 -7 -7 -7 -8 -7 -7 -7 -6 -6 -6 -4 -3 -3 -2 -3 -3 -4 -4 -5 -4 -4 -4 -3 -3 -2 -3 -2 -4
-3 -4 -5 -5 -5 -6 -6 -6 -6 -7 -7 -7 -7 -8 -8 -8 -7 -7 -6 -6 -5 -3 -3 -3 -3 -4 -3 -4 -4 -4 -4 -4 -3 -3 -3 -2 -2 -1

GFSNE_925_temp_132.txt.gz
Temp
15 14 13 14 14 14 13 13 13 13 12 13 13 13 13 12 12 12 11 11 10 10 10 10 10 10 10 9 8 9 9 10 11 12 12 12 12 13
14 14 13 13 13 13 13 13 12 12 12 12 11 10 10 9 9 10 9 9 9 9 9 8 8 8 7 7 8 8 7 8 9 10 11 11 12 12
12 12 13 12 13 12 12 11 11 11 11 10 9 8 8 8 8 8 8 8 8 7 7 7 7 7 6 6 6 6 7 7 7 9 10 10 11 12
9 10 10 10 8 9 8 8 7 7 8 8 7 7 7 7 7 7 6 6 6 6 6 6 6 6 5 5 6 6 6 6 7 7 8 10 10 11
7 6 5 6 7 5 5 4 5 4 5 5 5 5 5 5 5 5 4 4 4 5 5 5 5 4 4 4 4 5 6 6 7 7 7 8 10 11
5 6 4 4 4 4 4 4 4 4 4 4 3 3 3 3 3 2 1 2 2 4 4 4 4 4 4 3 4 5 5 5 6 5 6 7 8 9
4 5 4 4 4 3 3 3 2 2 2 2 1 1 1 0 0 0 -0 0 0 2 2 3 3 3 3 4 4 3 4 3 4 4 5 6 7 8
4 4 4 3 3 1 1 1 1 1 0 0 -0 -0 -0 -0 -0 -1 -1 0 1 1 1 1 2 2 3 3 3 3 3 3 3 4 4 5 6 7
3 3 3 2 2 1 1 1 1 0 0 -0 -0 -1 -1 -0 -1 -0 0 0 1 1 1 1 2 2 2 3 3 3 2 3 3 4 4 4 5 6
2 2 2 1 1 1 0 0 -0 -0 -1 -1 -1 -1 -1 -1 -1 -1 -1 -1 -0 0 0 0 0 1 2 1 3 3 3 3 3 4 5 5 5 5
2 2 1 1 1 1 0 -0 -0 -0 -1 -1 -1 -1 -1 -1 -1 -1 -1 -1 -0 -0 -0 -0 1 0 0 1 3 2 2 2 3 3 3 5 5 5
1 1 0 0 0 0 -0 -1 -1 -1 -1 -1 -1 -2 -2 -2 -2 -2 -3 -2 -2 -1 0 -1 -1 -0 -0 1 1 1 1 2 2 2 3 4 4 4
1 0 0 -0 -0 -0 -1 -1 -1 -1 -1 -2 -3 -3 -3 -3 -3 -3 -3 -3 -3 -2 -2 -2 -2 -2 -1 -0 0 0 1 0 1 -0 1 2 2 2
0 -0 -0 -1 -1 -1 -1 -1 -1 -2 -3 -3 -3 -3 -3 -3 -3 -3 -3 -3 -3 -3 -2 -2 -3 -3 -2 -2 -1 -0 -1 -1 -1 -2 -1 -0 -0 -0
-0 -1 -1 -1 -1 -1 -2 -2 -3 -3 -4 -4 -4 -4 -4 -4 -3 -3 -3 -2 -2 -2 -2 -2 -2 -3 -3 -3 -2 -2 -2 -2 -2 -1 -2 -2 -2 -1
-0 -1 -1 -2 -2 -2 -2 -3 -4 -4 -4 -4 -4 -5 -5 -5 -5 -4 -4 -4 -3 -2 -2 -2 -2 -3 -4 -3 -3 -3 -3 -2 -2 -2 -2 -2 -2 -3
-1 -2 -2 -3 -2 -3 -3 -3 -4 -5 -5 -5 -6 -6 -6 -6 -6 -5 -5 -4 -3 -3 -3 -2 -2 -2 -3 -4 -4 -3 -3 -3 -2 -3 -3 -3 -2 -2
-1 -2 -2 -3 -3 -3 -4 -4 -5 -5 -5 -6 -6 -6 -6 -6 -6 -5 -6 -6 -4 -3 -3 -3 -3 -3 -3 -2 -4 -4 -3 -3 -3 -3 -3 -3 -2 -2
-2 -2 -2 -3 -4 -4 -5 -5 -5 -6 -6 -6 -6 -7 -7 -6 -6 -7 -6 -6 -5 -4 -3 -2 -3 -4 -7 -7 -2 -4 -4 -3 -3 -3 -3 -3 -3 -2
-2 -3 -3 -4 -4 -5 -5 -5 -6 -6 -6 -7 -7 -7 -7 -7 -7 -7 -7 -6 -6 -4 -3 -3 -3 -3 -5 -5 -4 -3 -4 -3 -4 -3 -4 -3 -2 -2
-2 -3 -3 -4 -5 -5 -5 -6 -6 -6 -6 -6 -7 -7 -7 -8 -8 -7 -7 -6 -5 -5 -4 -3 -3 -3 -3 -4 -5 -4 -4 -4 -4 -3 -3 -3 -3 -2
-2 -3 -4 -4 -5 -5 -6 -6 -6 -6 -6 -7 -7 -7 -7 -8 -8 -8 -7 -7 -6 -6 -5 -4 -3 -4 -4 -4 -5 -4 -4 -4 -3 -4 -3 -4 -4 -4
-2 -3 -3 -4 -5 -5 -5 -6 -6 -6 -6 -7 -7 -7 -8 -8 -8 -8 -8 -7 -7 -6 -5 -4 -3 -4 -4 -4 -4 -4 -4 -4 -3 -3 -3 -2 -3 -3